Regional Weather Roundup
Issued by NWS

Home | Current Version | Previous Version | Graphics & Text | Print | Product List | Glossary On
Versions: 1 2 3 4 5 6 7 8 9 10 11 12 13 14 15 16 17 18 19 20 21 22 23 24 25 26 27 28 29 30 31 32 33 34 35 36 37 38 39 40 41 42 43 44 45 46 47 48 49 50
821
ASUS45 KBOU 252207
RWRCO

WEATHER ROUNDUP FOR COLORADO
NATIONAL WEATHER SERVICE DENVER/BOULDER CO
300 PM MST SAT FEB 25 2017

NOTE: "FAIR" INDICATES FEW OR NO CLOUDS BELOW 12000 FEET WITH NO
SIGNIFICANT WEATHER AND/OR OBSTRUCTIONS TO VISIBILITY.

COZ001>005-013-030-031-252300-
...NORTHWEST COLORADO...

CITY           SKY/WX    TMP DP  RH WIND       PRES   REMARKS
CRAIG          CLOUDY    24   8  50 W17G23    29.91F WCI  11
HAYDEN         FAIR      19   7  58 W20       29.88F WCI   4
MEEKER         FLURRIES  24  16  71 MISG      29.90F
MOUNT WERNER   NOT AVBL
STEAMBOAT SPGS CLOUDY    18   8  62 W15G22    29.87F WCI   4
WALDEN         NOT AVBL
$$

COZ006>008-011-252300-
...WEST CENTRAL VALLEYS...

CITY           SKY/WX    TMP DP  RH WIND       PRES   REMARKS
GRAND JUNCTION PTSUNNY   36  12  37 VRB3      29.95F
MONTROSE       CLOUDY    35   4  27 NW13      29.95F WCI  26
EAGLE          CLOUDY    25  10  54 W13       29.92F WCI  13
RIFLE          FAIR      32  11  41 W15       29.92F WCI  22
DELTA          PTSUNNY   38   3  22 W5        29.95F
NUCLA          CLOUDY    37   0  20 SW14G23   29.96F
$$

COZ017>023-064>068-252300-
...SOUTHWEST COLORADO...

CITY           SKY/WX    TMP DP  RH WIND       PRES   REMARKS
DURANGO        PTSUNNY   34   5  29 NW15G24   29.92F WCI  24
CORTEZ         FAIR      37   5  26 W17       29.95F
PAGOSA SPRINGS CLOUDY    31   5  33 SW14G21   29.90F WCI  20
TELLURIDE      CLOUDY    22   3  45 W10G17    29.89F WCI  11
WOLF CREEK PAS CLOUDY     9   5  85 S26G38    29.80F FOG     WCI -13
$$

COZ009-010-012-014-032>034-037-058>063-252300-
...CENTRAL COLORADO...

CITY           SKY/WX    TMP DP  RH WIND       PRES   REMARKS
ASPEN          CLOUDY    19   7  59 N10       29.85F WCI   7
BUENA VISTA    FAIR      23  -2  33 W20G28    29.83F WCI   8
COPPER MTN     NOT AVBL
BERTHOUD PASS  LGT SNOW  -6 -15  65 MISG      29.60F VSB 3/4
COTTONWOOD PAS CLOUDY    18   0  45 W7G23     29.76S WCI   8
GUNNISON       FAIR      19   5  54 CALM      29.89F
KREMMLING      LGT SNOW  23  16  74 W12       29.86S VSB 1   WCI  12
LEADVILLE      CLOUDY    10  -1  61 N10       29.74F WCI  -4
MONARCH PASS   CLOUDY     1  -2  85 SW32G48   29.80F WCI -25
SALIDA         FAIR      30  -7  19 W18G31    29.91F WCI  18
SUNLIGHT       NOT AVBL
WILKERSON PASS CLOUDY    10  -9  40 W13G28    29.71F WCI  -5
$$

COZ069>075-252300-
...SAN LUIS VALLEY/SANGRE DE CRISTO MOUNTAINS...

CITY           SKY/WX    TMP DP  RH WIND       PRES   REMARKS
ALAMOSA        FAIR      36   5  27 W23G31    29.81F
LA VETA PASS   FAIR      27   1  33 SW21G38   29.75F WCI  13
SAGUACHE       FAIR      28   0  29 NW24G33   29.83F WCI  14
$$

COZ035-036-038>040-252300-
...NORTHERN COLORADO FRONT RANGE...

CITY           SKY/WX    TMP DP  RH WIND       PRES   REMARKS
DENVER INTL AP FAIR      37  -1  20 NW26      29.79F
DMNS CITY PARK   N/A     38   0  20 NW15G23   29.78F
AURORA         PTSUNNY   35  -1  21 N9        29.79F WCI  28
FRONT RANGE AP PTSUNNY   37   3  23 NW12G20   29.80
ERIE MUNI ARPT FAIR      38   1  21 W12G22    29.81F
BOULDER MUN AP FAIR      36   7  30 W15       29.80S
CENTENNIAL     FAIR      35   2  24 VRB3      29.78F
BROOMFIELD     PTSUNNY   36   3  25 W18G32    29.80F
FORT COLLINS   FAIR      34   8  33 W10G16    29.82S WCI  26
LONGMONT       FAIR      39   6  25 W20G25    29.83S
$$

COZ041-046-047-076>085-087-088-252300-
...PIKES PEAK/PALMER DIVIDE AND SOUTHERN FOOTHILLS...

CITY           SKY/WX    TMP DP  RH WIND       PRES   REMARKS
COLO. SPRINGS  PTSUNNY   40  -8  13 NW17G25   29.76F
A. F. ACADEMY  FAIR      36  -6  16 W20G25    29.75F
SCHRIEVER AFB  FAIR      37  -9  14 NW9       29.76F
ELLICOTT       NOT AVBL
FALCON         FAIR      37  -8  14 W16G26    29.76S
FORT CARSON    FAIR      41  -8  12 W14G26    29.76S
LIMON          PTSUNNY   36  -5  17 S9        29.79F
MONUMENT HILL  CLOUDY    30   1  29 NW10      29.77S WCI  21
TRINIDAD       FAIR      47  -1  13 W22G29    29.78F
$$

COZ042>045-048>051-090-091-252300-
...NORTHEAST COLORADO...

CITY           SKY/WX    TMP DP  RH WIND       PRES   REMARKS
GREELEY ARPT   FAIR      37   8  30 VRB5      29.83F
AKRON          FAIR      34  17  50 S8        29.84F WCI  27
BURLINGTON     PTSUNNY   39   5  24 E5        29.87F
WRAY           NOT AVBL
STERLING       FAIR      32  18  55 NW3       29.86F
HOLYOKE        FAIR      37  16  41 NW13      29.89S
FORT MORGAN    FAIR      32  16  52 SE3       29.85F
$$

COZ086-089-092>099-252300-
...SOUTHEAST COLORADO...

CITY           SKY/WX    TMP DP  RH WIND       PRES   REMARKS
PUEBLO         FAIR      46  -6  11 W25G35    29.78F
LA JUNTA       FAIR      47   0  14 VRB5      29.82F
LAMAR          FAIR      46   3  17 NW9       29.84F
SPRINGFIELD      N/A     46  -2  13 W9G21     29.83F
$$




USA.gov is the U.S. government's official web portal to all federal, state and local government web resources and services.